,,,PA_Meas_PMT16A,,PR_Meas_QMR101_102,,RH_Meas_QMH101,,SR_Meas_QMS101,,TA_Meas_QMH101,,GenWind,,GenWind,
date,time,status,PA,status,PR,status,RH,status,SR,status,TA,status,DirAvg,status,SpdAvg,
2008-04-19, 00:00:04,VALID,1007.78,VALID,0,VALID,95.299,VALID,0,VALID,23.8889,VALID,342,VALID,0.265234,
2008-04-19, 00:01:04,VALID,1007.76,VALID,0,VALID,95.2533,VALID,0,VALID,23.8694,VALID,325,VALID,0.173828,
2008-04-19, 00:02:04,VALID,1007.74,VALID,0,VALID,95.2457,VALID,0,VALID,23.8907,VALID,325,VALID,0,
2008-04-19, 00:03:04,VALID,1007.73,VALID,0,VALID,95.2304,VALID,0,VALID,23.8499,VALID,325,VALID,0,
2008-04-19, 00:04:04,VALID,1007.68,VALID,0,VALID,95.2304,VALID,0,VALID,23.8694,VALID,325,VALID,0.00078125,
2008-04-19, 00:05:04,VALID,1007.65,VALID,0,VALID,95.2075,VALID,0,VALID,23.8694,VALID,325,VALID,0.143359,
2008-04-19, 00:06:04,VALID,1007.61,VALID,0,VALID,95.2152,VALID,0,VALID,23.8712,VALID,325,VALID,0.078125,
2008-04-19, 00:07:04,VALID,1007.58,VALID,0,VALID,95.1999,VALID,0,VALID,23.8694,VALID,66,VALID,0.436328,
2008-04-19, 00:08:04,VALID,1007.52,VALID,0,VALID,95.1847,VALID,0,VALID,23.8499,VALID,55,VALID,0.535547,
2008-04-19, 00:09:04,VALID,1007.51,VALID,0,VALID,95.177,VALID,0,VALID,23.8712,VALID,62,VALID,0.299609,
2008-04-19, 00:10:04,VALID,1007.51,VALID,0,VALID,95.1236,VALID,0,VALID,23.8304,VALID,61,VALID,0.185937,
2008-04-19, 00:11:04,VALID,1007.48,VALID,0,VALID,95.1389,VALID,0,VALID,23.8499,VALID,61,VALID,0.196094,
2008-04-19, 00:12:04,VALID,1007.46,VALID,0,VALID,95.116,VALID,0,VALID,23.8109,VALID,72,VALID,0.272656,
2008-04-19, 00:13:04,VALID,1007.46,VALID,0,VALID,95.116,VALID,0,VALID,23.8517,VALID,83,VALID,0.132813,
2008-04-19, 00:14:04,VALID,1007.47,VALID,0,VALID,95.116,VALID,0,VALID,23.8109,VALID,83,VALID,0.0457031,
2008-04-19, 00:15:04,VALID,1007.47,VALID,0,VALID,95.116,VALID,0,VALID,23.8109,VALID,83,VALID,0.0597656,
2008-04-19, 00:16:04,VALID,1007.46,VALID,0,VALID,95.1236,VALID,0,VALID,23.8322,VALID,81,VALID,0.0328125,
2008-04-19, 00:17:04,VALID,1007.44,VALID,0,VALID,95.1313,VALID,0,VALID,23.8109,VALID,81,VALID,0.00078125,
2008-04-19, 00:18:04,VALID,1007.41,VALID,0,VALID,95.1236,VALID,0,VALID,23.8127,VALID,81,VALID,0.145703,
2008-04-19, 00:19:04,VALID,1007.39,VALID,0,VALID,95.1389,VALID,0,VALID,23.7914,VALID,81,VALID,0,
2008-04-19, 00:20:04,VALID,1007.36,VALID,0,VALID,95.177,VALID,0,VALID,23.8127,VALID,81,VALID,0.003125,
2008-04-19, 00:21:04,VALID,1007.34,VALID,0,VALID,95.1847,VALID,0,VALID,23.772,VALID,81,VALID,0.0429688,
2008-04-19, 00:22:04,VALID,1007.31,VALID,0,VALID,95.1923,VALID,0,VALID,23.7914,VALID,85,VALID,0.318359,
2008-04-19, 00:23:04,VALID,1007.28,VALID,0,VALID,95.2152,VALID,0,VALID,23.7932,VALID,38,VALID,0.36875,
2008-04-19, 00:24:04,VALID,1007.25,VALID,0,VALID,95.2228,VALID,0,VALID,23.7932,VALID,38,VALID,0.201562,
2008-04-19, 00:25:04,VALID,1007.24,VALID,0,VALID,95.2457,VALID,0,VALID,23.772,VALID,70,VALID,0.329297,
2008-04-19, 00:26:04,VALID,1007.22,VALID,0,VALID,95.3067,VALID,0,VALID,23.772,VALID,70,VALID,0.311328,
2008-04-19, 00:27:04,VALID,1007.22,VALID,0,VALID,95.2838,VALID,0,VALID,23.7738,VALID,70,VALID,0,
2008-04-19, 00:28:04,VALID,1007.19,VALID,0,VALID,95.3067,VALID,0,VALID,23.7738,VALID,70,VALID,0.178125,
2008-04-19, 00:29:04,VALID,1007.16,VALID,0,VALID,95.3295,VALID,0,VALID,23.7543,VALID,70,VALID,0.207813,
2008-04-19, 00:30:04,VALID,1007.15,VALID,0,VALID,95.3295,VALID,0,VALID,23.7543,VALID,70,VALID,0.00195313,
2008-04-19, 00:31:04,VALID,1007.08,VALID,0,VALID,95.3295,VALID,0,VALID,23.7543,VALID,69,VALID,0.216016,
2008-04-19, 00:32:04,VALID,1007.1,VALID,0,VALID,95.3448,VALID,0,VALID,23.7135,VALID,69,VALID,0.0257812,
2008-04-19, 00:33:04,VALID,1007.06,VALID,0,VALID,95.3524,VALID,0,VALID,23.7543,VALID,69,VALID,0,
2008-04-19, 00:34:04,VALID,1007.01,VALID,0,VALID,95.36,VALID,0,VALID,23.7348,VALID,69,VALID,0.108984,
2008-04-19, 00:35:04,VALID,1007.02,VALID,0,VALID,95.3677,VALID,0,VALID,23.7348,VALID,69,VALID,0.0691406,
2008-04-19, 00:36:04,VALID,1007.02,VALID,0,VALID,95.4363,VALID,0,VALID,23.7348,VALID,66,VALID,0.202344,
2008-04-19, 00:37:04,VALID,1007.01,VALID,0,VALID,95.4363,VALID,0,VALID,23.7543,VALID,66,VALID,0.199609,
2008-04-19, 00:38:04,VALID,1007.01,VALID,0,VALID,95.4134,VALID,0,VALID,23.7348,VALID,334,VALID,0.311719,
2008-04-19, 00:39:04,VALID,1006.99,VALID,0,VALID,95.4287,VALID,0,VALID,23.7153,VALID,323,VALID,0.1375,
2008-04-19, 00:40:04,VALID,1006.99,VALID,0,VALID,95.4363,VALID,0,VALID,23.7135,VALID,323,VALID,0,
2008-04-19, 00:41:04,VALID,1006.97,VALID,0,VALID,95.4363,VALID,0,VALID,23.7153,VALID,323,VALID,0,
2008-04-19, 00:42:04,VALID,1006.96,VALID,0,VALID,95.3982,VALID,0,VALID,23.6958,VALID,323,VALID,0,
2008-04-19, 00:43:04,VALID,1006.97,VALID,0,VALID,95.4134,VALID,0,VALID,23.6958,VALID,323,VALID,0.135547,
2008-04-19, 00:44:04,VALID,1006.99,VALID,0,VALID,95.4134,VALID,0,VALID,23.6958,VALID,323,VALID,0,
2008-04-19, 00:45:04,VALID,1006.96,VALID,0,VALID,95.4134,VALID,0,VALID,23.6745,VALID,325,VALID,0.236328,
2008-04-19, 00:46:04,VALID,1006.95,VALID,0,VALID,95.4439,VALID,0,VALID,23.655,VALID,80,VALID,0.649609,
2008-04-19, 00:47:04,VALID,1006.96,VALID,0,VALID,95.4592,VALID,0,VALID,23.6763,VALID,69,VALID,0.524219,
2008-04-19, 00:48:04,VALID,1006.93,VALID,0,VALID,95.4668,VALID,0,VALID,23.6763,VALID,61,VALID,0.296484,
2008-04-19, 00:49:04,VALID,1006.95,VALID,0,VALID,95.4592,VALID,0,VALID,23.6763,VALID,62,VALID,0.432422,
2008-04-19, 00:50:04,VALID,1006.96,VALID,0,VALID,95.4516,VALID,0,VALID,23.6745,VALID,62,VALID,0.257031,
2008-04-19, 00:51:04,VALID,1006.94,VALID,0,VALID,95.4287,VALID,0,VALID,23.6373,VALID,62,VALID,0.0160156,
2008-04-19, 00:52:04,VALID,1006.92,VALID,0,VALID,95.4592,VALID,0,VALID,23.6161,VALID,42,VALID,0.26875,
2008-04-19, 00:53:04,VALID,1006.9,VALID,0,VALID,95.4668,VALID,0,VALID,23.6161,VALID,42,VALID,0,
2008-04-19, 00:54:04,VALID,1006.91,VALID,0,VALID,95.4668,VALID,0,VALID,23.5966,VALID,41,VALID,0.0046875,
2008-04-19, 00:55:04,VALID,1006.89,VALID,0,VALID,95.5049,VALID,0,VALID,23.6179,VALID,43,VALID,0.238672,
2008-04-19, 00:56:04,VALID,1006.88,VALID,0,VALID,95.5049,VALID,0,VALID,23.5984,VALID,43,VALID,0.176953,
2008-04-19, 00:57:04,VALID,1006.88,VALID,0,VALID,95.5126,VALID,0,VALID,23.6356,VALID,46,VALID,0.238281,
2008-04-19, 00:58:04,VALID,1006.87,VALID,0,VALID,95.5583,VALID,0,VALID,23.6161,VALID,82,VALID,0.344141,
2008-04-19, 00:59:04,VALID,1006.87,VALID,0,VALID,95.5354,VALID,0.105969,VALID,23.5948,VALID,82,VALID,0,
2008-04-19, 01:00:04,VALID,1006.86,VALID,0,VALID,95.5659,VALID,0.105969,VALID,23.5948,VALID,82,VALID,0.24375,
2008-04-19, 01:01:04,VALID,1006.86,VALID,0,VALID,95.5583,VALID,0.105969,VALID,23.6143,VALID,82,VALID,0.287891,
2008-04-19, 01:02:04,VALID,1006.86,VALID,0,VALID,95.5659,VALID,0.105969,VALID,23.6356,VALID,82,VALID,0.215234,
2008-04-19, 01:03:04,VALID,1006.86,VALID,0,VALID,95.5736,VALID,0.105969,VALID,23.6143,VALID,82,VALID,0.161328,
2008-04-19, 01:04:04,VALID,1006.86,VALID,0,VALID,95.5736,VALID,0.105969,VALID,23.6143,VALID,82,VALID,0.141016,
2008-04-19, 01:05:04,VALID,1006.87,VALID,0,VALID,95.5659,VALID,0,VALID,23.6356,VALID,82,VALID,0.189844,
2008-04-19, 01:06:04,VALID,1006.87,VALID,0,VALID,95.6117,VALID,0,VALID,23.6143,VALID,95,VALID,0.373047,
2008-04-19, 01:07:04,VALID,1006.87,VALID,0,VALID,95.5964,VALID,0,VALID,23.655,VALID,95,VALID,0.525391,
2008-04-19, 01:08:04,VALID,1006.89,VALID,0,VALID,95.5964,VALID,0.105969,VALID,23.6338,VALID,95,VALID,0.267578,
2008-04-19, 01:09:04,VALID,1006.9,VALID,0,VALID,95.5964,VALID,0.105969,VALID,23.6745,VALID,95,VALID,0.392969,
2008-04-19, 01:10:04,VALID,1006.93,VALID,0,VALID,95.5659,VALID,0,VALID,23.6745,VALID,95,VALID,0.320313,
2008-04-19, 01:11:04,VALID,1006.94,VALID,0,VALID,95.5736,VALID,0,VALID,23.6532,VALID,95,VALID,0.169922,
2008-04-19, 01:12:04,VALID,1006.94,VALID,0,VALID,95.5964,VALID,0,VALID,23.655,VALID,95,VALID,0.0277344,
2008-04-19, 01:13:04,VALID,1006.96,VALID,0,VALID,95.5736,VALID,0,VALID,23.694,VALID,95,VALID,0,
2008-04-19, 01:14:04,VALID,1006.97,VALID,0,VALID,95.5888,VALID,0,VALID,23.694,VALID,93,VALID,0.262109,
2008-04-19, 01:15:04,VALID,1006.98,VALID,0,VALID,95.5812,VALID,0,VALID,23.694,VALID,93,VALID,0.323047,
2008-04-19, 01:16:04,VALID,1006.97,VALID,0,VALID,95.5888,VALID,0,VALID,23.7348,VALID,93,VALID,0.163281,
2008-04-19, 01:17:04,VALID,1006.95,VALID,0,VALID,95.5583,VALID,0,VALID,23.7135,VALID,93,VALID,0.18125,
2008-04-19, 01:18:04,VALID,1006.94,VALID,0,VALID,95.4744,VALID,0,VALID,23.7135,VALID,93,VALID,0.429297,
2008-04-19, 01:19:04,VALID,1006.92,VALID,0,VALID,95.4897,VALID,0,VALID,23.7543,VALID,93,VALID,0.378516,
2008-04-19, 01:20:04,VALID,1006.9,VALID,0,VALID,95.4516,VALID,0,VALID,23.7135,VALID,97,VALID,0.761719,
2008-04-19, 01:21:04,VALID,1006.88,VALID,0,VALID,95.3982,VALID,0,VALID,23.733,VALID,93,VALID,0.798437,
2008-04-19, 01:22:04,VALID,1006.85,VALID,0,VALID,95.4058,VALID,0,VALID,23.7525,VALID,97,VALID,0.491406,
2008-04-19, 01:23:04,VALID,1006.87,VALID,0,VALID,95.3905,VALID,0,VALID,23.7525,VALID,97,VALID,0.366797,
2008-04-19, 01:24:04,VALID,1006.85,VALID,0,VALID,95.3829,VALID,0,VALID,23.7932,VALID,96,VALID,0.439453,
2008-04-19, 01:25:04,VALID,1006.83,VALID,0,VALID,95.3753,VALID,0,VALID,23.8127,VALID,95,VALID,0.258203,
2008-04-19, 01:26:04,VALID,1006.85,VALID,0,VALID,95.3372,VALID,0,VALID,23.7932,VALID,71,VALID,0.321094,
2008-04-19, 01:27:04,VALID,1006.81,VALID,0,VALID,95.2533,VALID,0.105969,VALID,23.772,VALID,71,VALID,0.257031,
2008-04-19, 01:28:04,VALID,1006.81,VALID,0,VALID,95.2609,VALID,0,VALID,23.7507,VALID,71,VALID,0.0734375,
2008-04-19, 01:29:04,VALID,1006.74,VALID,0,VALID,95.2304,VALID,0,VALID,23.7525,VALID,71,VALID,0.185937,
2008-04-19, 01:30:04,VALID,1006.73,VALID,0,VALID,95.2075,VALID,0.105969,VALID,23.733,VALID,71,VALID,0.341406,
2008-04-19, 01:31:04,VALID,1006.66,VALID,0,VALID,95.177,VALID,0.105969,VALID,23.7117,VALID,71,VALID,0.353125,
2008-04-19, 01:32:04,VALID,1006.6,VALID,0,VALID,95.177,VALID,0,VALID,23.7135,VALID,71,VALID,0.154297,
2008-04-19, 01:33:04,VALID,1006.57,VALID,0,VALID,95.1999,VALID,0.105969,VALID,23.733,VALID,71,VALID,0,
2008-04-19, 01:34:04,VALID,1006.5,VALID,0,VALID,95.2152,VALID,0.105969,VALID,23.694,VALID,71,VALID,0,
2008-04-19, 01:35:04,VALID,1006.49,VALID,0,VALID,95.2533,VALID,0.105969,VALID,23.6745,VALID,71,VALID,0.230469,
2008-04-19, 01:36:04,VALID,1006.49,VALID,0,VALID,95.2457,VALID,0.105969,VALID,23.694,VALID,68,VALID,0.407813,
2008-04-19, 01:37:04,VALID,1006.46,VALID,0,VALID,95.2685,VALID,0.105969,VALID,23.6745,VALID,63,VALID,0.239453,
2008-04-19, 01:38:04,VALID,1006.43,VALID,0,VALID,95.2762,VALID,0.105969,VALID,23.6532,VALID,63,VALID,0.270312,
2008-04-19, 01:39:04,VALID,1006.43,VALID,0,VALID,95.2685,VALID,0,VALID,23.655,VALID,63,VALID,0.286719,
2008-04-19, 01:40:04,VALID,1006.41,VALID,0,VALID,95.2533,VALID,0,VALID,23.6356,VALID,63,VALID,0.090625,
2008-04-19, 01:41:04,VALID,1006.41,VALID,0,VALID,95.2685,VALID,0,VALID,23.6143,VALID,63,VALID,0.0203125,
2008-04-19, 01:42:04,VALID,1006.4,VALID,0,VALID,95.2914,VALID,0,VALID,23.6161,VALID,63,VALID,0.259766,
2008-04-19, 01:43:04,VALID,1006.38,VALID,0,VALID,95.299,VALID,0.105969,VALID,23.6161,VALID,63,VALID,0.0253906,
2008-04-19, 01:44:04,VALID,1006.37,VALID,0,VALID,95.3067,VALID,0,VALID,23.5966,VALID,63,VALID,0,
2008-04-19, 01:45:04,VALID,1006.36,VALID,0,VALID,95.3372,VALID,0,VALID,23.5966,VALID,63,VALID,0,
2008-04-19, 01:46:04,VALID,1006.37,VALID,0,VALID,95.3982,VALID,0,VALID,23.6356,VALID,63,VALID,0.00273437,
2008-04-19, 01:47:04,VALID,1006.34,VALID,0,VALID,95.3905,VALID,0,VALID,23.5966,VALID,63,VALID,0,
2008-04-19, 01:48:04,VALID,1006.33,VALID,0,VALID,95.4744,VALID,0,VALID,23.6161,VALID,63,VALID,0,
2008-04-19, 01:49:04,VALID,1006.35,VALID,0,VALID,95.4668,VALID,0.105969,VALID,23.5753,VALID,63,VALID,0,
2008-04-19, 01:50:04,VALID,1006.32,VALID,0,VALID,95.4439,VALID,0,VALID,23.5948,VALID,63,VALID,0,
2008-04-19, 01:51:04,VALID,1006.33,VALID,0,VALID,95.4668,VALID,0.105969,VALID,23.5966,VALID,63,VALID,0,
2008-04-19, 01:52:04,VALID,1006.36,VALID,0,VALID,95.4744,VALID,0.105969,VALID,23.5771,VALID,63,VALID,0,
2008-04-19, 01:53:04,VALID,1006.35,VALID,0,VALID,95.4897,VALID,0.105969,VALID,23.5558,VALID,63,VALID,0,
2008-04-19, 01:54:04,VALID,1006.38,VALID,0,VALID,95.5126,VALID,0,VALID,23.5558,VALID,63,VALID,0,
2008-04-19, 01:55:04,VALID,1006.38,VALID,0,VALID,95.5736,VALID,0,VALID,23.5753,VALID,63,VALID,0.168359,
2008-04-19, 01:56:04,VALID,1006.38,VALID,0,VALID,95.6269,VALID,0,VALID,23.5948,VALID,63,VALID,0,
2008-04-19, 01:57:04,VALID,1006.4,VALID,0,VALID,95.6422,VALID,0,VALID,23.6161,VALID,64,VALID,0.00117188,
2008-04-19, 01:58:04,VALID,1006.41,VALID,0,VALID,95.6269,VALID,0,VALID,23.6161,VALID,154,VALID,0.462109,
2008-04-19, 01:59:04,VALID,1006.44,VALID,0,VALID,95.6041,VALID,0,VALID,23.5966,VALID,175,VALID,0.416797,
2008-04-19, 02:00:04,VALID,1006.42,VALID,0,VALID,95.5888,VALID,0,VALID,23.6161,VALID,175,VALID,0.3625,
2008-04-19, 02:01:04,VALID,1006.39,VALID,0,VALID,95.6041,VALID,0,VALID,23.5966,VALID,175,VALID,0.326953,
2008-04-19, 02:02:04,VALID,1006.4,VALID,0,VALID,95.5736,VALID,0,VALID,23.6161,VALID,175,VALID,0.314063,
2008-04-19, 02:03:04,VALID,1006.43,VALID,0,VALID,95.5964,VALID,0,VALID,23.6373,VALID,175,VALID,0.236328,
2008-04-19, 02:04:04,VALID,1006.4,VALID,0,VALID,95.5812,VALID,0,VALID,23.6161,VALID,175,VALID,0.162891,
2008-04-19, 02:05:04,VALID,1006.38,VALID,0,VALID,95.5736,VALID,0,VALID,23.6179,VALID,175,VALID,0.119531,
2008-04-19, 02:06:04,VALID,1006.38,VALID,0,VALID,95.5964,VALID,0,VALID,23.6373,VALID,175,VALID,0.107031,
2008-04-19, 02:07:04,VALID,1006.35,VALID,0,VALID,95.5888,VALID,0,VALID,23.6373,VALID,175,VALID,0.196875,
2008-04-19, 02:08:04,VALID,1006.32,VALID,0,VALID,95.6193,VALID,0,VALID,23.6356,VALID,127,VALID,0.344141,
2008-04-19, 02:09:04,VALID,1006.31,VALID,0,VALID,95.6269,VALID,0,VALID,23.6356,VALID,81,VALID,0.245703,
2008-04-19, 02:10:04,VALID,1006.34,VALID,0,VALID,95.6117,VALID,0,VALID,23.6568,VALID,81,VALID,0.357812,
2008-04-19, 02:11:04,VALID,1006.33,VALID,0,VALID,95.6117,VALID,0,VALID,23.6568,VALID,81,VALID,0.255859,
2008-04-19, 02:12:04,VALID,1006.34,VALID,0,VALID,95.6269,VALID,0,VALID,23.6356,VALID,81,VALID,0.214844,
2008-04-19, 02:13:04,VALID,1006.38,VALID,0,VALID,95.6041,VALID,0,VALID,23.6568,VALID,81,VALID,0.0902344,
2008-04-19, 02:14:04,VALID,1006.39,VALID,0,VALID,95.6422,VALID,0,VALID,23.6373,VALID,81,VALID,0,
2008-04-19, 02:15:04,VALID,1006.39,VALID,0,VALID,95.6346,VALID,0,VALID,23.6568,VALID,81,VALID,0,
2008-04-19, 02:16:04,VALID,1006.38,VALID,0,VALID,95.6117,VALID,0,VALID,23.6745,VALID,81,VALID,0,
2008-04-19, 02:17:04,VALID,1006.4,VALID,0,VALID,95.5812,VALID,0,VALID,23.6568,VALID,81,VALID,0,
2008-04-19, 02:18:04,VALID,1006.4,VALID,0,VALID,95.6041,VALID,0,VALID,23.6958,VALID,81,VALID,0.108203,
2008-04-19, 02:19:04,VALID,1006.36,VALID,0,VALID,95.6193,VALID,0,VALID,23.6568,VALID,81,VALID,0.205469,
2008-04-19, 02:20:04,VALID,1006.34,VALID,0,VALID,95.6117,VALID,0,VALID,23.655,VALID,98,VALID,0.3,
2008-04-19, 02:21:04,VALID,1006.3,VALID,0,VALID,95.6422,VALID,0,VALID,23.6958,VALID,100,VALID,0.344531,
2008-04-19, 02:22:04,VALID,1006.28,VALID,0,VALID,95.6041,VALID,0,VALID,23.6745,VALID,100,VALID,0.257031,
2008-04-19, 02:23:04,VALID,1006.26,VALID,0,VALID,95.6041,VALID,0,VALID,23.6958,VALID,100,VALID,0.385547,
2008-04-19, 02:24:04,VALID,1006.25,VALID,0,VALID,95.5964,VALID,0,VALID,23.6745,VALID,75,VALID,0.541406,
2008-04-19, 02:25:04,VALID,1006.22,VALID,0,VALID,95.5583,VALID,0,VALID,23.6958,VALID,75,VALID,0.55,
2008-04-19, 02:26:04,VALID,1006.19,VALID,0,VALID,95.5126,VALID,0,VALID,23.6958,VALID,75,VALID,0.535156,
2008-04-19, 02:27:04,VALID,1006.17,VALID,0,VALID,95.4821,VALID,0.105969,VALID,23.6727,VALID,75,VALID,0.704687,
2008-04-19, 02:28:04,VALID,1006.14,VALID,0,VALID,95.4439,VALID,0.105969,VALID,23.6922,VALID,75,VALID,0.482812,
2008-04-19, 02:29:04,VALID,1006.12,VALID,0,VALID,95.4363,VALID,0.105969,VALID,23.7135,VALID,75,VALID,0.187109,
2008-04-19, 02:30:04,VALID,1006.12,VALID,0,VALID,95.3905,VALID,0,VALID,23.694,VALID,72,VALID,0.207422,
2008-04-19, 02:31:04,VALID,1006.14,VALID,0,VALID,95.3295,VALID,0.105969,VALID,23.694,VALID,61,VALID,0.206641,
2008-04-19, 02:32:04,VALID,1006.14,VALID,0,VALID,95.3677,VALID,0.105969,VALID,23.6532,VALID,61,VALID,0.282031,
2008-04-19, 02:33:04,VALID,1006.16,VALID,0,VALID,95.299,VALID,0.105969,VALID,23.6532,VALID,47,VALID,0.302344,
2008-04-19, 02:34:04,VALID,1006.17,VALID,0,VALID,95.2838,VALID,0,VALID,23.655,VALID,47,VALID,0.200781,
2008-04-19, 02:35:04,VALID,1006.18,VALID,0,VALID,95.2609,VALID,0,VALID,23.6143,VALID,47,VALID,0.208203,
2008-04-19, 02:36:04,VALID,1006.18,VALID,0,VALID,95.2533,VALID,0.105969,VALID,23.6356,VALID,47,VALID,0.0234375,
2008-04-19, 02:37:04,VALID,1006.18,VALID,0,VALID,95.2685,VALID,0,VALID,23.6356,VALID,47,VALID,0,
2008-04-19, 02:38:04,VALID,1006.17,VALID,0,VALID,95.2533,VALID,0.105969,VALID,23.5948,VALID,47,VALID,0,
2008-04-19, 02:39:04,VALID,1006.15,VALID,0,VALID,95.2609,VALID,0.105969,VALID,23.5966,VALID,47,VALID,0,
2008-04-19, 02:40:04,VALID,1006.13,VALID,0,VALID,95.299,VALID,0,VALID,23.5753,VALID,47,VALID,0,
2008-04-19, 02:41:04,VALID,1006.13,VALID,0,VALID,95.3524,VALID,0.105969,VALID,23.5966,VALID,47,VALID,0,
2008-04-19, 02:42:04,VALID,1006.14,VALID,0,VALID,95.3677,VALID,0.105969,VALID,23.5966,VALID,47,VALID,0,
2008-04-19, 02:43:04,VALID,1006.14,VALID,0,VALID,95.3829,VALID,0,VALID,23.5966,VALID,47,VALID,0,
2008-04-19, 02:44:04,VALID,1006.14,VALID,0,VALID,95.3982,VALID,0.105969,VALID,23.5771,VALID,47,VALID,0,
2008-04-19, 02:45:04,VALID,1006.13,VALID,0,VALID,95.4821,VALID,0,VALID,23.5966,VALID,47,VALID,0.269141,
2008-04-19, 02:46:04,VALID,1006.14,VALID,0,VALID,95.4897,VALID,0.105969,VALID,23.5753,VALID,44,VALID,0.220703,
2008-04-19, 02:47:04,VALID,1006.14,VALID,0,VALID,95.4592,VALID,0.105969,VALID,23.5966,VALID,44,VALID,0.0292969,
2008-04-19, 02:48:04,VALID,1006.15,VALID,0,VALID,95.4516,VALID,0.105969,VALID,23.5771,VALID,44,VALID,0,
2008-04-19, 02:49:04,VALID,1006.13,VALID,0,VALID,95.4668,VALID,0,VALID,23.5771,VALID,44,VALID,0.298438,
2008-04-19, 02:50:04,VALID,1006.14,VALID,0,VALID,95.4516,VALID,0.105969,VALID,23.6161,VALID,44,VALID,0.303516,
2008-04-19, 02:51:04,VALID,1006.1,VALID,0,VALID,95.4592,VALID,0,VALID,23.5558,VALID,44,VALID,0.342187,
2008-04-19, 02:52:04,VALID,1006.12,VALID,0,VALID,95.4516,VALID,0.105969,VALID,23.5381,VALID,47,VALID,0.382422,
2008-04-19, 02:53:04,VALID,1006.1,VALID,0,VALID,95.5126,VALID,0,VALID,23.5381,VALID,105,VALID,0.33125,
2008-04-19, 02:54:04,VALID,1006.09,VALID,0,VALID,95.5354,VALID,0.105969,VALID,23.5576,VALID,105,VALID,0.392578,
2008-04-19, 02:55:04,VALID,1006.09,VALID,0,VALID,95.5202,VALID,0.105969,VALID,23.5381,VALID,105,VALID,0.384766,
2008-04-19, 02:56:04,VALID,1006.09,VALID,0,VALID,95.5431,VALID,0,VALID,23.5169,VALID,145,VALID,0.577344,
2008-04-19, 02:57:04,VALID,1006.1,VALID,0,VALID,95.5354,VALID,0.105969,VALID,23.5186,VALID,150,VALID,0.594141,
2008-04-19, 02:58:04,VALID,1006.13,VALID,0,VALID,95.5507,VALID,0,VALID,23.4992,VALID,152,VALID,0.4625,
2008-04-19, 02:59:04,VALID,1006.14,VALID,0,VALID,95.5812,VALID,0.105969,VALID,23.4992,VALID,152,VALID,0.497266,
2008-04-19, 03:00:04,VALID,1006.14,VALID,0,VALID,95.5659,VALID,0.105969,VALID,23.4584,VALID,156,VALID,0.515625,
2008-04-19, 03:01:04,VALID,1006.17,VALID,0,VALID,95.5812,VALID,0.105969,VALID,23.4602,VALID,157,VALID,0.429297,
2008-04-19, 03:02:04,VALID,1006.15,VALID,0,VALID,95.6117,VALID,0.105969,VALID,23.4389,VALID,157,VALID,0.424609,
2008-04-19, 03:03:04,VALID,1006.16,VALID,0,VALID,95.6193,VALID,0.105969,VALID,23.4992,VALID,157,VALID,0.391797,
2008-04-19, 03:04:04,VALID,1006.17,VALID,0,VALID,95.6651,VALID,0.105969,VALID,23.4602,VALID,154,VALID,0.591406,
2008-04-19, 03:05:04,VALID,1006.15,VALID,0,VALID,95.7261,VALID,0.105969,VALID,23.4602,VALID,144,VALID,0.564453,
2008-04-19, 03:06:04,VALID,1006.16,VALID,0,VALID,95.7413,VALID,0.105969,VALID,23.4584,VALID,143,VALID,0.604688,
2008-04-19, 03:07:04,VALID,1006.14,VALID,0,VALID,95.7871,VALID,0.105969,VALID,23.4797,VALID,127,VALID,0.783594,
2008-04-19, 03:08:04,VALID,1006.1,VALID,0,VALID,95.8023,VALID,0.105969,VALID,23.4584,VALID,132,VALID,0.708594,
2008-04-19, 03:09:04,VALID,1006.13,VALID,0,VALID,95.8252,VALID,0.105969,VALID,23.5186,VALID,120,VALID,0.569141,
2008-04-19, 03:10:04,VALID,1006.13,VALID,0,VALID,95.8481,VALID,0.105969,VALID,23.4992,VALID,120,VALID,0.606641,
2008-04-19, 03:11:04,VALID,1006.11,VALID,0,VALID,95.8176,VALID,0.105969,VALID,23.4974,VALID,131,VALID,0.698438,
2008-04-19, 03:12:04,VALID,1006.11,VALID,0,VALID,95.8405,VALID,0,VALID,23.4797,VALID,125,VALID,0.734375,
2008-04-19, 03:13:04,VALID,1006.09,VALID,0,VALID,95.7947,VALID,0,VALID,23.5009,VALID,145,VALID,0.694531,
2008-04-19, 03:14:04,VALID,1006.11,VALID,0,VALID,95.7795,VALID,0,VALID,23.5009,VALID,146,VALID,0.58125,
2008-04-19, 03:15:04,VALID,1006.12,VALID,0,VALID,95.7566,VALID,0,VALID,23.5009,VALID,155,VALID,0.672266,
2008-04-19, 03:16:04,VALID,1006.12,VALID,0,VALID,95.749,VALID,0,VALID,23.4832,VALID,157,VALID,0.680859,
2008-04-19, 03:17:04,VALID,1006.13,VALID,0,VALID,95.7337,VALID,0,VALID,23.462,VALID,148,VALID,0.656641,
2008-04-19, 03:18:04,VALID,1006.13,VALID,0,VALID,95.749,VALID,0,VALID,23.462,VALID,157,VALID,0.692578,
2008-04-19, 03:19:04,VALID,1006.11,VALID,0,VALID,95.749,VALID,0,VALID,23.4407,VALID,132,VALID,0.519922,
2008-04-19, 03:20:04,VALID,1006.1,VALID,0,VALID,95.7642,VALID,0,VALID,23.4425,VALID,129,VALID,0.342187,
2008-04-19, 03:21:04,VALID,1006.12,VALID,0,VALID,95.8176,VALID,0,VALID,23.4407,VALID,79,VALID,0.475391,
2008-04-19, 03:22:04,VALID,1006.11,VALID,0,VALID,95.8252,VALID,0,VALID,23.4815,VALID,79,VALID,0.678516,
2008-04-19, 03:23:04,VALID,1006.11,VALID,0,VALID,95.81,VALID,0,VALID,23.4815,VALID,53,VALID,0.529688,
2008-04-19, 03:24:04,VALID,1006.09,VALID,0,VALID,95.7871,VALID,0,VALID,23.5009,VALID,74,VALID,0.745313,
2008-04-19, 03:25:04,VALID,1006.1,VALID,0,VALID,95.7718,VALID,0,VALID,23.4815,VALID,70,VALID,0.775781,
2008-04-19, 03:26:04,VALID,1006.09,VALID,0,VALID,95.7337,VALID,0,VALID,23.4815,VALID,65,VALID,0.641406,
2008-04-19, 03:27:04,VALID,1006.09,VALID,0,VALID,95.7185,VALID,0,VALID,23.4602,VALID,91,VALID,0.791406,
2008-04-19, 03:28:04,VALID,1006.07,VALID,0,VALID,95.7337,VALID,0,VALID,23.4602,VALID,92,VALID,0.6375,
2008-04-19, 03:29:04,VALID,1006.08,VALID,0,VALID,95.7261,VALID,0,VALID,23.4389,VALID,104,VALID,0.335547,
2008-04-19, 03:30:04,VALID,1006.09,VALID,0,VALID,95.7108,VALID,0.105969,VALID,23.4602,VALID,103,VALID,0.373828,
2008-04-19, 03:31:04,VALID,1006.06,VALID,0,VALID,95.6956,VALID,0,VALID,23.4407,VALID,102,VALID,0.298828,
2008-04-19, 03:32:04,VALID,1006.05,VALID,0,VALID,95.7185,VALID,0,VALID,23.4,VALID,100,VALID,0.251563,
2008-04-19, 03:33:04,VALID,1006.05,VALID,0,VALID,95.7108,VALID,0,VALID,23.4212,VALID,100,VALID,0.0574219,
2008-04-19, 03:34:04,VALID,1006.04,VALID,0,VALID,95.7413,VALID,0.105969,VALID,23.4212,VALID,100,VALID,0.169141,
2008-04-19, 03:35:04,VALID,1006.05,VALID,0,VALID,95.7642,VALID,0.105969,VALID,23.4407,VALID,100,VALID,0.19375,
2008-04-19, 03:36:04,VALID,1006.04,VALID,0,VALID,95.7642,VALID,0,VALID,23.4407,VALID,100,VALID,0.153906,
2008-04-19, 03:37:04,VALID,1006.06,VALID,0,VALID,95.7795,VALID,0.105969,VALID,23.4,VALID,100,VALID,0.251953,
2008-04-19, 03:38:04,VALID,1006.04,VALID,0,VALID,95.749,VALID,0,VALID,23.4212,VALID,100,VALID,0.144141,
2008-04-19, 03:39:04,VALID,1006.05,VALID,0,VALID,95.7566,VALID,0,VALID,23.4407,VALID,253,VALID,0.216406,
2008-04-19, 03:40:04,VALID,1006.05,VALID,0,VALID,95.7871,VALID,0,VALID,23.4407,VALID,253,VALID,0.301562,
2008-04-19, 03:41:04,VALID,1006.08,VALID,0,VALID,95.8176,VALID,0,VALID,23.4407,VALID,243,VALID,0.337109,
2008-04-19, 03:42:04,VALID,1006.08,VALID,0,VALID,95.7795,VALID,0,VALID,23.462,VALID,234,VALID,0.175781,
2008-04-19, 03:43:04,VALID,1006.09,VALID,0,VALID,95.7566,VALID,0,VALID,23.4212,VALID,232,VALID,0.296094,
2008-04-19, 03:44:04,VALID,1006.1,VALID,0,VALID,95.7261,VALID,0,VALID,23.4425,VALID,232,VALID,0.192188,